| time (UTC) | temp F | wind direction | speed MPH | gust MPH | rain 1hr in | rain 24hr in | rain mn in | humidity % | barometer mb |
| 20260903223059 | 71 | 304 | 0.0 | 3.0 | 0.00 | 0.00 | 0.00 | 70 | 1020.1 |
| 20260903221556 | 71 | 301 | 0.0 | 3.0 | 0.00 | 0.00 | 0.00 | 69 | 1020.2 |
| 20260903220109 | 71 | 313 | 1.0 | 3.0 | 0.00 | 0.00 | 0.00 | 70 | 1020.1 |
| 20260903214552 | 71 | 315 | 1.0 | 3.0 | 0.00 | 0.00 | 0.00 | 71 | 1019.9 |
| 20260903213052 | 72 | 316 | 0.0 | 0.0 | 0.00 | 0.00 | 0.00 | 70 | 1019.7 |
| 20260903211615 | 73 | 316 | 0.0 | 2.0 | 0.00 | 0.00 | 0.00 | 69 | 1019.5 |
| 20260903210055 | 73 | 316 | 0.0 | 0.0 | 0.00 | 0.00 | 0.00 | 68 | 1019.3 |
| 20260903204550 | 73 | 316 | 0.0 | 1.0 | 0.00 | 0.00 | 0.00 | 68 | 1019.3 |
| 20260903203050 | 74 | 316 | 0.0 | 2.0 | 0.00 | 0.00 | 0.00 | 68 | 1019.3 |
| 20260903201549 | 75 | 325 | 0.0 | 2.0 | 0.00 | 0.00 | 0.00 | 64 | 1019.2 |
| 20260903200048 | 75 | 325 | 0.0 | 3.0 | 0.00 | 0.00 | 0.00 | 63 | 1019.0 |
| 20260903194549 | 77 | 325 | 2.0 | 4.0 | 0.00 | 0.00 | 0.00 | 60 | 1018.9 |
| 20260903193048 | 79 | 175 | 1.0 | 5.0 | 0.00 | 0.00 | 0.00 | 54 | 1018.6 |
| 20260903191546 | 79 | 266 | 0.0 | 0.0 | 0.00 | 0.00 | 0.00 | 52 | 1018.4 |
| 20260903190047 | 80 | 266 | 0.0 | 0.0 | 0.00 | 0.00 | 0.00 | 51 | 1018.3 |
| 20260903184547 | 80 | 267 | 0.0 | 3.0 | 0.00 | 0.00 | 0.00 | 51 | 1018.2 |
| 20260903183045 | 81 | 205 | 2.0 | 7.0 | 0.00 | 0.00 | 0.00 | 50 | 1017.9 |
| 20260903181544 | 82 | 214 | 3.0 | 13.0 | 0.00 | 0.00 | 0.00 | 48 | 1017.6 |
| 20260903180048 | 82 | 341 | 3.0 | 5.0 | 0.00 | 0.00 | 0.00 | 47 | 1017.4 |
| 20260903174604 | 83 | 252 | 2.0 | 9.0 | 0.00 | 0.00 | 0.00 | 46 | 1017.2 |
| 20260903173045 | 83 | 304 | 3.0 | 8.0 | 0.00 | 0.00 | 0.00 | 46 | 1017.1 |
| 20260903171542 | 85 | 213 | 6.0 | 20.0 | 0.00 | 0.00 | 0.00 | 45 | 1017.0 |
| 20260903170104 | 85 | 150 | 9.0 | 20.0 | 0.00 | 0.00 | 0.00 | 44 | 1016.9 |
| 20260903164550 | 85 | 223 | 14.0 | 20.0 | 0.00 | 0.00 | 0.00 | 43 | 1016.7 |
| 20260903163041 | 86 | 215 | 7.0 | 20.0 | 0.00 | 0.00 | 0.00 | 41 | 1016.7 |
| 20260903161541 | 86 | 226 | 9.0 | 20.0 | 0.00 | 0.00 | 0.00 | 38 | 1016.7 |
| 20260903160038 | 86 | 237 | 6.0 | 15.0 | 0.00 | 0.00 | 0.00 | 36 | 1016.6 |
| 20260903154539 | 87 | 265 | 7.0 | 13.0 | 0.00 | 0.00 | 0.00 | 36 | 1016.6 |
| 20260903153044 | 87 | 260 | 3.0 | 15.0 | 0.00 | 0.00 | 0.00 | 38 | 1016.5 |
| 20260903151547 | 88 | 256 | 3.0 | 18.0 | 0.00 | 0.00 | 0.00 | 38 | 1016.5 |
| 20260903150037 | 89 | 217 | 9.0 | 15.0 | 0.00 | 0.00 | 0.00 | 34 | 1016.4 |
| 20260903144535 | 90 | 206 | 8.0 | 14.0 | 0.00 | 0.00 | 0.00 | 34 | 1016.4 |
| 20260903143032 | 90 | 161 | 8.0 | 13.0 | 0.00 | 0.00 | 0.00 | 34 | 1016.5 |
| 20260903141530 | 90 | 192 | 8.0 | 12.0 | 0.00 | 0.00 | 0.00 | 32 | 1016.7 |
| 20260903140028 | 90 | 136 | 7.0 | 14.0 | 0.00 | 0.00 | 0.00 | 31 | 1017.1 |
| 20260903134527 | 89 | 242 | 2.0 | 4.0 | 0.00 | 0.00 | 0.00 | 33 | 1017.6 |
| 20260903133021 | 89 | 270 | 0.0 | 4.0 | 0.00 | 0.00 | 0.00 | 32 | 1017.8 |
| 20260903131519 | 90 | 279 | 1.0 | 4.0 | 0.00 | 0.00 | 0.00 | 31 | 1017.7 |
| 20260903130017 | 88 | 295 | 1.0 | 4.0 | 0.00 | 0.00 | 0.00 | 34 | 1018.0 |
| 20260903124512 | 87 | 286 | 2.0 | 4.0 | 0.00 | 0.00 | 0.00 | 36 | 1017.9 |
| 20260903123010 | 87 | 329 | 2.0 | 4.0 | 0.00 | 0.00 | 0.00 | 37 | 1018.1 |
| 20260903121506 | 86 | 309 | 2.0 | 4.0 | 0.00 | 0.00 | 0.00 | 37 | 1018.4 |
| 20260903120004 | 85 | 314 | 1.0 | 4.0 | 0.00 | 0.00 | 0.00 | 37 | 1018.6 |
| 20260903114607 | 84 | 299 | 2.0 | 6.0 | 0.00 | 0.00 | 0.00 | 39 | 1018.8 |
| 20260903113059 | 84 | 355 | 4.0 | 6.0 | 0.00 | 0.00 | 0.00 | 39 | 1019.0 |
| 20260903111622 | 83 | 355 | 3.0 | 6.0 | 0.00 | 0.00 | 0.00 | 42 | 1019.3 |
| 20260903110107 | 82 | 350 | 2.0 | 8.0 | 0.00 | 0.00 | 0.00 | 43 | 1019.4 |
| 20260903104605 | 81 | 340 | 3.0 | 8.0 | 0.00 | 0.00 | 0.00 | 42 | 1019.7 |
| 20260903103048 | 81 | 5 | 2.0 | 8.0 | 0.00 | 0.00 | 0.00 | 44 | 1020.1 |
| 20260903101548 | 80 | 334 | 2.0 | 8.0 | 0.00 | 0.00 | 0.00 | 45 | 1020.3 |
| 20260903100043 | 79 | 9 | 2.0 | 6.0 | 0.00 | 0.00 | 0.00 | 46 | 1020.3 |
| 20260903094540 | 79 | 339 | 3.0 | 10.0 | 0.00 | 0.00 | 0.00 | 48 | 1020.5 |
| 20260903093042 | 77 | 300 | 3.0 | 9.0 | 0.00 | 0.00 | 0.00 | 49 | 1020.7 |
| 20260903091534 | 77 | 335 | 6.0 | 11.0 | 0.00 | 0.00 | 0.00 | 50 | 1021.2 |
| 20260903090032 | 76 | 15 | 4.0 | 10.0 | 0.00 | 0.00 | 0.00 | 54 | 1021.5 |
| 20260903084533 | 75 | 340 | 3.0 | 9.0 | 0.00 | 0.00 | 0.00 | 56 | 1021.6 |
| 20260903083023 | 74 | 333 | 5.0 | 9.0 | 0.00 | 0.00 | 0.00 | 57 | 1021.7 |
| 20260903081520 | 73 | 342 | 3.0 | 6.0 | 0.00 | 0.00 | 0.00 | 59 | 1021.7 |
| 20260903080017 | 72 | 9 | 5.0 | 9.0 | 0.00 | 0.00 | 0.00 | 60 | 1021.7 |
| 20260903074515 | 72 | 345 | 4.0 | 6.0 | 0.00 | 0.00 | 0.00 | 61 | 1021.7 |
| 20260903073031 | 71 | 355 | 3.0 | 8.0 | 0.00 | 0.00 | 0.00 | 63 | 1021.7 |
| 20260903071510 | 70 | 355 | 3.0 | 6.0 | 0.00 | 0.00 | 0.00 | 64 | 1022.1 |
| 20260903070009 | 69 | 342 | 3.0 | 8.0 | 0.00 | 0.00 | 0.00 | 65 | 1022.2 |
| 20260903064509 | 68 | 335 | 4.0 | 10.0 | 0.00 | 0.00 | 0.00 | 67 | 1022.0 |
| 20260903063007 | 67 | 342 | 2.0 | 6.0 | 0.00 | 0.00 | 0.00 | 69 | 1021.9 |
| 20260903061509 | 67 | 317 | 2.0 | 5.0 | 0.00 | 0.00 | 0.00 | 71 | 1021.9 |
| 20260903060003 | 65 | 355 | 2.0 | 10.0 | 0.00 | 0.00 | 0.00 | 73 | 1021.8 |
| 20260903054501 | 64 | 5 | 2.0 | 4.0 | 0.00 | 0.00 | 0.00 | 77 | 1021.6 |
| 20260903053110 | 63 | 299 | 1.0 | 4.0 | 0.00 | 0.00 | 0.00 | 77 | 1021.4 |
| 20260903051556 | 63 | 319 | 0.0 | 3.0 | 0.00 | 0.00 | 0.00 | 77 | 1021.3 |
| 20260903050055 | 64 | 308 | 1.0 | 6.0 | 0.00 | 0.00 | 0.00 | 78 | 1021.2 |
| 20260903044602 | 64 | 339 | 0.0 | 4.0 | 0.00 | 0.00 | 0.00 | 78 | 1020.9 |
| 20260903043052 | 64 | 323 | 3.0 | 5.0 | 0.00 | 0.00 | 0.00 | 78 | 1020.9 |
| 20260903041554 | 64 | 302 | 1.0 | 2.0 | 0.00 | 0.00 | 0.00 | 78 | 1020.8 |
| 20260903040049 | 64 | 303 | 1.0 | 3.0 | 0.00 | 0.00 | 0.00 | 78 | 1020.8 |
| 20260903034548 | 64 | 312 | 1.0 | 3.0 | 0.00 | 0.00 | 0.00 | 78 | 1020.7 |
| 20260903033052 | 64 | 311 | 2.0 | 3.0 | 0.00 | 0.00 | 0.00 | 78 | 1020.7 |
| 20260903031550 | 64 | 304 | 1.0 | 5.0 | 0.00 | 0.00 | 0.00 | 79 | 1020.8 |
| 20260903030107 | 64 | 322 | 1.0 | 4.0 | 0.00 | 0.00 | 0.00 | 79 | 1020.8 |
| 20260903024544 | 64 | 346 | 2.0 | 4.0 | 0.00 | 0.00 | 0.00 | 79 | 1020.7 |
| 20260903023042 | 65 | 317 | 2.0 | 4.0 | 0.00 | 0.00 | 0.00 | 78 | 1020.7 |
| 20260903021540 | 65 | 327 | 0.0 | 1.0 | 0.00 | 0.00 | 0.00 | 78 | 1020.6 |
| 20260903020038 | 65 | 327 | 1.0 | 3.0 | 0.00 | 0.00 | 0.00 | 78 | 1020.6 |
| 20260903014536 | 66 | 11 | 1.0 | 3.0 | 0.00 | 0.00 | 0.00 | 78 | 1020.5 |
| 20260903013042 | 66 | 309 | 0.0 | 0.0 | 0.00 | 0.00 | 0.00 | 77 | 1020.5 |
| 20260903011533 | 66 | 309 | 0.0 | 2.0 | 0.00 | 0.00 | 0.00 | 77 | 1020.4 |
| 20260903010036 | 66 | 307 | 0.0 | 1.0 | 0.00 | 0.00 | 0.00 | 77 | 1020.3 |
| 20260903004529 | 67 | 310 | 0.0 | 2.0 | 0.00 | 0.00 | 0.00 | 76 | 1020.1 |
| 20260903003036 | 67 | 309 | 0.0 | 3.0 | 0.00 | 0.00 | 0.00 | 76 | 1020.0 |
| 20260903001527 | 67 | 307 | 0.0 | 3.0 | 0.00 | 0.00 | 0.00 | 77 | 1019.9 |
| 20260903000026 | 67 | 306 | 0.0 | 2.0 | 0.00 | 0.00 | 0.00 | 76 | 1019.8 |
| 20260902234525 | 68 | 305 | 2.0 | 4.0 | 0.00 | 0.00 | 0.00 | 76 | 1019.8 |
| 20260902233021 | 68 | 302 | 0.0 | 3.0 | 0.00 | 0.00 | 0.00 | 75 | 1019.7 |
| 20260902231528 | 69 | 298 | 0.0 | 2.0 | 0.00 | 0.00 | 0.00 | 75 | 1019.7 |
| 20260902230016 | 69 | 300 | 0.0 | 2.0 | 0.00 | 0.00 | 0.00 | 74 | 1019.6 |